[[{"header":{"parameterUnit":"m.s-1","parameterCategory":1,"la1":30.2991,"la2":30.254,"lo1":-89.0895,"lo2":-89.0444,"dy":0.0017,"dx":0.0017,"nx":28,"ny":28,"refTime":"2024-04-13T03:00:00:Z","depth":0,"parameterNumber":2,"parameterNumberName":"U-component_of_WINDS"},"data":[0,0,0,0,0,0,0,0,0,0,0,0,0,0,0,0,0,0,0,0,0,0,0,0,0,0,0,0,0,0,0,0,0,0,0,0,0,0,0,0,0,0,0,0,0,0,0,0,0,0,0,0,0,0,0,0,0,0,1.4166,1.4168,0,1.4289,1.429,1.4291,1.4338,1.4337,1.4337,1.4336,1.4459,1.4463,1.4466,0,0,0,0,0,0,0,0,0,0,0,0,0,1.3969,1.3972,1.4166,1.4168,1.4169,1.4288,1.429,1.4292,1.4338,1.4337,1.4337,1.4336,1.4458,1.4462,1.4467,0,0,0,0,0,0,0,0,0,0,0,0,0,1.4069,1.3973,1.4166,1.4207,1.4211,1.4288,1.429,1.4292,1.4338,1.4337,1.4337,1.4336,1.4457,1.4462,1.4467,1.4512,0,0,1.4484,1.4486,0,0,0,0,0,0,0,0,1.4063,1.4076,1.4199,1.4204,1.421,1.4297,1.4266,1.4366,1.4338,1.429,1.4336,1.4336,1.4406,1.4415,1.4439,1.4518,1.4523,1.4484,1.4488,1.449,1.4492,0,0,0,0,0,0,0,1.4056,1.4071,1.4215,1.4201,1.4207,1.4218,1.4231,1.4285,1.4349,1.4294,1.4297,1.4311,1.4408,1.4434,1.4443,1.4525,1.4484,1.4489,1.4492,1.4495,1.4644,1.4645,0,0,0,0,0,0,1.4043,1.4065,1.4211,1.4218,1.4134,1.4222,1.4237,1.427,1.4349,1.436,1.4312,1.4313,1.4425,1.4436,1.4447,1.4504,1.449,1.4495,1.4498,1.4643,1.4644,1.4645,0,0,0,0,0,0,1.4039,1.4056,1.4206,1.4143,1.4163,1.4226,1.4262,1.4272,1.4298,1.4362,1.4374,1.4326,1.4425,1.4439,1.4495,1.4509,1.4498,1.4502,1.4642,1.4644,1.4645,1.4617,0,0,0,0,0,0,1.4033,1.4054,1.4072,1.4143,1.4166,1.4253,1.4263,1.4275,1.4308,1.431,1.4379,1.439,1.4426,1.4487,1.4501,1.4516,1.4507,1.4642,1.4643,1.4644,1.4617,1.4617,1.4617,0,0,0,0,0,1.4026,1.4059,1.4073,1.409,1.419,1.4254,1.4267,1.4308,1.4308,1.4327,1.4368,1.4388,1.4505,1.4492,1.4508,1.4525,1.4641,1.4643,1.4644,1.4617,1.4617,1.4617,0,0,0,0,0,0,1.3988,1.407,1.4085,1.4143,1.4191,1.4261,1.4286,1.4307,1.4355,1.4355,1.4404,1.4419,1.447,1.4503,1.4488,1.4572,1.4574,1.4579,1.4548,1.4549,1.4549,1.454,1.4511,0,0,0,0,0,1.3987,1.4032,1.41,1.4145,1.4168,1.4223,1.4252,1.4279,1.433,1.4351,1.4396,1.4444,1.4492,1.4522,1.457,1.4622,1.4637,1.4642,1.4641,1.4641,1.4645,1.4674,1.4676,1.465,1.465,1.465,0,0,1.3984,1.4034,1.406,1.4139,1.4179,1.4224,1.4239,1.4286,1.432,1.4358,1.4413,1.4448,1.4505,1.4559,1.4585,1.4588,1.4655,1.4643,1.4643,1.4646,1.4676,1.4678,1.468,1.4651,1.4651,1.4651,0,0,1.4002,1.4045,1.4086,1.4126,1.4187,1.4223,1.4233,1.43,1.4324,1.4381,1.441,1.445,1.4531,1.457,1.46,1.4631,1.4651,1.4645,1.4646,1.4673,1.4675,1.4677,1.4688,1.4691,1.4649,1.4649,1.4649,0,1.3991,1.4061,1.4105,1.415,1.4183,1.422,1.4261,1.4298,1.437,1.4392,1.4394,1.4496,1.4537,1.46,1.4608,1.4632,1.4643,1.4638,1.4672,1.4674,1.4677,1.4687,1.4691,1.4648,1.4648,1.4648,1.4648,0,1.4043,1.4091,1.4117,1.4187,1.4223,1.4266,1.4315,1.4346,1.437,1.4405,1.4461,1.4511,1.4569,1.4586,1.461,1.4652,1.4652,1.4662,1.4666,1.4677,1.4688,1.4692,1.4646,1.4646,1.4647,1.4647,0,0,1.4042,1.4135,1.4144,1.4175,1.4245,1.4282,1.4326,1.4383,1.4408,1.4456,1.4494,1.4561,1.4571,1.4605,1.4633,1.4658,1.4678,1.4665,1.4667,1.4665,1.4726,1.4718,1.4722,1.4691,1.4692,1.4693,1.4721,0,1.4068,1.415,1.419,1.4253,1.4297,1.4332,1.437,1.4416,1.445,1.4491,1.4528,1.4574,1.4584,1.4605,1.463,1.467,1.4691,1.4669,1.4725,1.4727,1.471,1.4728,1.4719,1.4744,1.4726,1.4727,1.4727,0,1.4111,1.4159,1.4227,1.4291,1.4311,1.4344,1.4399,1.4438,1.449,1.4513,1.4551,1.4578,1.4624,1.4624,1.4688,1.4672,1.4697,1.472,1.4722,1.4729,1.4728,1.4734,1.4753,1.4756,1.4734,1.4734,1.4733,0,1.4101,1.4184,1.4235,1.4261,1.4337,1.4359,1.4392,1.4443,1.4475,1.4522,1.4543,1.4594,1.4623,1.4662,1.4702,1.4698,1.4761,1.4765,1.478,1.4779,1.4792,1.4791,1.4814,1.4809,1.4809,1.4809,1.4809,0,1.4127,1.4167,1.4232,1.4264,1.4309,1.4354,1.4397,1.4432,1.4477,1.4515,1.4548,1.4582,1.4634,1.4674,1.4706,1.4753,1.4765,1.4784,1.4792,1.4781,1.4779,1.4799,1.4798,1.481,1.4809,1.4809,1.4809,0,1.4125,1.417,1.4228,1.4295,1.4312,1.4342,1.4399,1.443,1.4465,1.4512,1.4525,1.458,1.4629,1.4673,1.4738,1.4759,1.4807,1.4817,1.479,1.4794,1.4807,1.4805,1.4844,1.4851,1.4841,1.4841,1.4841,0,1.4138,1.4169,1.4239,1.4267,1.4299,1.4344,1.4376,1.4421,1.4453,1.4514,1.4537,1.4589,1.4633,1.4709,1.4754,1.4804,1.4815,1.4825,1.4823,1.481,1.4815,1.4812,1.4815,1.4825,1.4825,1.4825,1.4825,0,1.4156,1.4176,1.4222,1.4275,1.4313,1.4357,1.4401,1.4422,1.4475,1.4509,1.456,1.4594,1.466,1.4711,1.4765,1.4797,1.4819,1.4825,1.4831,1.482,1.4803,1.4812,1.4789,1.4824,1.4824,1.4824,1.4824,1.4824,1.4161,1.4191,1.4244,1.4294,1.4332,1.4373,1.4405,1.4444,1.4488,1.4546,1.4569,1.4621,1.4671,1.4746,1.4778,1.4818,1.4822,1.4832,1.4834,1.4835,1.4833,1.4796,1.4828,1.4828,1.4829,1.4829,1.4829,0,1.418,1.4217,1.4261,1.4323,1.4362,1.438,1.443,1.446,1.4506,1.4551,1.4593,1.4651,1.47,1.4748,1.4799,1.4822,1.4834,1.4834,1.4833,1.484,1.4827,1.4816,1.4824,1.4824,1.4824,1.4824,1.4824,1.4824,1.4195,1.4245,1.4272,1.4341,1.4377,1.4428,1.4455,1.4493,1.4529,1.4592,1.4633,1.4665,1.4711,1.4766,1.4811,1.4824,1.4841,1.4838,1.4854,1.4841,1.4841,1.4841,1.4831,1.4842,1.4842,1.4864,1.4864,1.4864]},{"header":{"parameterUnit":"m.s-1","parameterCategory":1,"la1":30.2991,"la2":30.254,"lo1":-89.0895,"lo2":-89.0444,"dy":0.0017,"dx":0.0017,"nx":28,"ny":28,"refTime":"2024-04-13T03:00:00:Z","depth":0,"parameterNumber":3,"parameterNumberName":"V-component_of_WINDS"},"data":[0,0,0,0,0,0,0,0,0,0,0,0,0,0,0,0,0,0,0,0,0,0,0,0,0,0,0,0,0,0,0,0,0,0,0,0,0,0,0,0,0,0,0,0,0,0,0,0,0,0,0,0,0,0,0,0,0,0,3.8335,3.8335,0,3.8307,3.8307,3.8307,3.824,3.8239,3.8237,3.8236,3.8209,3.8209,3.821,0,0,0,0,0,0,0,0,0,0,0,0,0,3.8332,3.8333,3.8335,3.8335,3.8335,3.8308,3.8307,3.8307,3.824,3.8238,3.8237,3.8235,3.8209,3.8209,3.821,0,0,0,0,0,0,0,0,0,0,0,0,0,3.8322,3.8333,3.8335,3.8298,3.8295,3.8308,3.8307,3.8307,3.8241,3.8238,3.8236,3.8234,3.8208,3.8209,3.821,3.8258,0,0,3.8213,3.8213,0,0,0,0,0,0,0,0,3.8323,3.8322,3.8304,3.8301,3.8297,3.8275,3.8296,3.829,3.8241,3.8261,3.8236,3.8233,3.8233,3.8231,3.8231,3.8256,3.8255,3.8213,3.8213,3.8214,3.8214,0,0,0,0,0,0,0,3.8324,3.8323,3.8324,3.8304,3.8299,3.8283,3.8279,3.8295,3.8259,3.8259,3.8254,3.8252,3.823,3.823,3.823,3.8255,3.8213,3.8214,3.8214,3.8214,3.8317,3.8319,0,0,0,0,0,0,3.8329,3.8324,3.8325,3.8324,3.8305,3.8285,3.8281,3.8284,3.8259,3.8253,3.8254,3.8249,3.823,3.8229,3.8228,3.8282,3.8214,3.8215,3.8215,3.8315,3.8318,3.832,0,0,0,0,0,0,3.833,3.833,3.8326,3.8322,3.8321,3.8287,3.8292,3.8285,3.8284,3.8254,3.8248,3.826,3.8228,3.8227,3.8251,3.828,3.8215,3.8216,3.8312,3.8316,3.8319,3.8389,0,0,0,0,0,0,3.833,3.8331,3.8348,3.8323,3.8321,3.8349,3.8293,3.8286,3.8286,3.8279,3.8259,3.8253,3.8226,3.825,3.8251,3.828,3.8216,3.831,3.8314,3.8318,3.8384,3.8394,3.8403,0,0,0,0,0,3.833,3.8369,3.8349,3.835,3.8342,3.8351,3.8349,3.8317,3.8289,3.8306,3.8287,3.8254,3.8277,3.8253,3.8254,3.8283,3.8308,3.8313,3.8318,3.838,3.8392,3.8403,0,0,0,0,0,0,3.8399,3.8365,3.8343,3.8375,3.8366,3.8339,3.836,3.8332,3.8331,3.8325,3.8285,3.8281,3.831,3.8299,3.8273,3.8328,3.8287,3.8292,3.8333,3.8345,3.8355,3.8356,3.8217,0,0,0,0,0,3.8418,3.8427,3.8398,3.8429,3.8426,3.8394,3.8396,3.8372,3.8362,3.8358,3.834,3.8331,3.8336,3.834,3.8343,3.8382,3.8377,3.8403,3.8413,3.8421,3.8426,3.8445,3.8456,3.8336,3.8336,3.8336,0,0,3.8457,3.844,3.8448,3.8443,3.8433,3.8443,3.8391,3.8405,3.8412,3.836,3.838,3.8367,3.8355,3.8386,3.8399,3.8378,3.8458,3.8427,3.8434,3.8434,3.8451,3.8463,3.8473,3.834,3.8339,3.8339,0,0,3.8534,3.8522,3.8547,3.8538,3.8523,3.8502,3.8508,3.8485,3.8474,3.8494,3.8455,3.8464,3.8474,3.8466,3.8464,3.8538,3.8507,3.854,3.859,3.8609,3.8619,3.8627,3.8653,3.8663,3.8545,3.8545,3.8546,0,3.8585,3.8599,3.8563,3.8579,3.8578,3.853,3.8555,3.8548,3.8536,3.8536,3.8513,3.8523,3.8512,3.854,3.8558,3.8558,3.8564,3.8542,3.862,3.8628,3.8635,3.8659,3.8669,3.8549,3.8549,3.8549,3.8548,0,3.8661,3.8672,3.8694,3.8682,3.8683,3.8704,3.8671,3.8677,3.8653,3.8634,3.8655,3.864,3.8638,3.8644,3.8621,3.8669,3.8656,3.8627,3.8585,3.8651,3.8673,3.8682,3.8555,3.8554,3.8552,3.8551,0,0,3.878,3.8749,3.8757,3.8751,3.8732,3.8739,3.8758,3.8756,3.8761,3.8755,3.8769,3.8778,3.8751,3.8748,3.8724,3.8741,3.88,3.871,3.8709,3.8726,3.8852,3.8873,3.8884,3.878,3.8782,3.8783,3.8853,0,3.8852,3.888,3.8849,3.8885,3.8893,3.8849,3.8865,3.8855,3.8838,3.8843,3.8825,3.8832,3.8796,3.8794,3.8809,3.879,3.8825,3.8785,3.8793,3.8794,3.8796,3.8896,3.8919,3.8985,3.8861,3.8862,3.8863,0,3.8939,3.8935,3.8971,3.8949,3.8952,3.8967,3.8962,3.8968,3.8956,3.8943,3.894,3.891,3.8927,3.8887,3.8909,3.8883,3.8884,3.8876,3.8878,3.8876,3.8832,3.8897,3.9005,3.9015,3.8877,3.8876,3.8875,0,3.9021,3.9025,3.9047,3.9044,3.9019,3.903,3.902,3.9006,3.9007,3.9004,3.9004,3.9003,3.9002,3.9002,3.8973,3.8947,3.8999,3.8957,3.8988,3.8989,3.9001,3.9,3.911,3.9004,3.9003,3.9003,3.9003,0,3.9103,3.9127,3.9084,3.9097,3.9122,3.9087,3.9113,3.9098,3.9086,3.9096,3.9058,3.9069,3.903,3.9037,3.9015,3.9036,3.9037,3.9026,3.902,3.9029,3.903,3.9029,3.9023,3.9006,3.9005,3.9005,3.9004,0,3.9199,3.9171,3.9191,3.9166,3.916,3.918,3.9158,3.917,3.9151,3.9164,3.9165,3.9135,3.9141,3.9112,3.9113,3.9098,3.9131,3.9117,3.9134,3.913,3.9163,3.916,3.9275,3.9288,3.9174,3.9175,3.9176,0,3.9252,3.9269,3.9246,3.9249,3.9241,3.9248,3.9249,3.9214,3.9217,3.9204,3.9217,3.922,3.922,3.9231,3.9209,3.921,3.9195,3.9236,3.9195,3.9204,3.9195,3.9194,3.9195,3.9244,3.9245,3.9246,3.9247,0,3.9351,3.9336,3.9338,3.9335,3.9337,3.9333,3.9327,3.9332,3.9295,3.93,3.9305,3.9305,3.9305,3.9308,3.9304,3.9294,3.9265,3.926,3.9268,3.9277,3.9286,3.928,3.9157,3.9258,3.9257,3.9256,3.9255,3.9255,3.9426,3.9439,3.9424,3.9428,3.9419,3.9414,3.9424,3.9406,3.9409,3.9406,3.9386,3.9395,3.9382,3.9374,3.9367,3.9374,3.9354,3.9365,3.9368,3.9371,3.9376,3.9286,3.9373,3.9373,3.9372,3.9372,3.9372,0,3.9522,3.951,3.9514,3.9506,3.9509,3.9481,3.9472,3.9476,3.9484,3.9475,3.9476,3.9481,3.9484,3.9463,3.9463,3.9472,3.9458,3.9473,3.9471,3.9469,3.9393,3.9387,3.9484,3.9484,3.9484,3.9484,3.9484,3.9484,3.9572,3.9592,3.9576,3.9591,3.9579,3.9587,3.9585,3.958,3.9572,3.958,3.9582,3.9568,3.9554,3.9552,3.9553,3.9547,3.9548,3.9568,3.9557,3.9486,3.9475,3.9465,3.9458,3.9568,3.9568,3.9632,3.9632,3.9633]}]]